Evansville, IN

5:40 PM CST on November 18, 2019 (GMT -0600)
Evansville Regional

Weather History for KEVV - October, 2019

Change the Weather History Date:

Sunday, October 13, 2019

  Actual Average Record
Temperature  
Mean Temperature 52 °F 58 °F  
Max Temperature 70 °F 71 °F 91 °F (1989)
Min Temperature 35 °F 46 °F 25 °F (1988)
Degree Days  
Heating Degree Days 12 7  
Month to date heating degree days 53 79  
Since 1 July heating degree days 53 126  
Cooling Degree Days 0 1  
Month to date cooling degree days 49 20  
Year to date cooling degree days 1640 1386  
Growing Degree Days 2 (Base 50)    
Moisture  
Dew Point 36 °F    
Average Humidity 62    
Maximum Humidity 92    
Minimum Humidity 26    
Precipitation  
Precipitation 0.00 in 0.09 in 1.77 in (2014)
Month to date precipitation 0.42 1.31  
Year to date precipitation 46.50 35.28  
Snow  
Snow 0.00 in 0.00 in 0.00 in (2002)
Month to date snowfall 0.0 0.0  
Since 1 July snowfall 0.0 0.0  
Since 1 September snowfall 0.0 0.0  
Snow Depth 0.00 in    
Sea Level Pressure  
Sea Level Pressure 30.02 in    
Wind  
Wind Speed 4 mph ()    
Max Wind Speed 17 mph    
Max Gust Speed 23 mph    
Visibility 9.3 miles    
Events      
T = Trace of Precipitation, MM = Missing Value Source: Averaged Metar Reports

Daily Weather History Graph

Daily Weather History Graph

Search for Another Location

Airport or City:

Astronomy

Oct. 13, 2019 Rise Set
Actual Time 6:56 AM CDT 6:15 PM CDT
Civil Twilight 6:30 AM CDT 6:41 PM CDT
Nautical Twilight 5:59 AM CDT 7:12 PM CDT
Astronomical Twilight 5:29 AM CDT 7:42 PM CDT
Moon 6:37 PM CDT (10/13) 6:31 AM CDT (10/13)
Length of Visible Light 12h 11m
Length of Day
11h 18m
Full, 100% of the Moon is Illuminated
Oct 13
Full
Oct 13
Full
Oct 21
Last Quarter
Oct 27
New
Nov 4
First Quarter

Hourly Weather History & Observations

Time (CDT) Temp. Windchill Dew Point Humidity Pressure Visibility Wind Dir Wind Speed Gust Speed Precip Events Conditions
12:54 AM 42.1 °F - 34.0 °F 73% 30.05 in 10.0 mi Calm Calm - N/A   Clear
1:54 AM 39.9 °F - 33.1 °F 77% 30.06 in 10.0 mi Calm Calm - N/A   Clear
2:54 AM 39.0 °F - 34.0 °F 82% 30.05 in 10.0 mi Calm Calm - N/A   Clear
3:54 AM 37.0 °F - 34.0 °F 89% 30.04 in 10.0 mi Calm Calm - N/A   Clear
4:54 AM 37.9 °F - 34.0 °F 86% 30.04 in 10.0 mi Calm Calm - N/A   Clear
5:54 AM 36.0 °F - 33.1 °F 89% 30.05 in 10.0 mi Calm Calm - N/A   Clear
6:54 AM 36.0 °F 33.3 °F 33.1 °F 89% 30.05 in 1.8 mi NNE 3.5 mph - N/A   Partly Cloudy
6:56 AM 36.0 °F - 33.1 °F 89% 30.05 in 0.8 mi North - - N/A   Mist
6:58 AM 36.0 °F - 33.1 °F 89% 30.05 in 10.0 mi North - - N/A   Clear
7:54 AM 39.9 °F - 37.0 °F 89% 30.05 in 10.0 mi Calm Calm - N/A   Clear
8:54 AM 48.9 °F - 39.9 °F 71% 30.05 in 10.0 mi SSW 6.9 mph - N/A   Clear
9:54 AM 55.0 °F - 37.9 °F 53% 30.04 in 10.0 mi SSW 10.4 mph - N/A   Clear
10:54 AM 59.0 °F - 37.9 °F 46% 30.04 in 10.0 mi North - - N/A   Clear
12:54 PM 64.9 °F - 36.0 °F 34% 29.99 in 10.0 mi SW 11.5 mph - N/A   Clear
1:54 PM 66.9 °F - 35.1 °F 31% 29.97 in 10.0 mi SW 11.5 mph - N/A   Clear
2:54 PM 69.1 °F - 34.0 °F 27% 29.96 in 10.0 mi SSW 11.5 mph - N/A   Clear
3:54 PM 69.1 °F - 34.0 °F 27% 29.96 in 10.0 mi SSW 10.4 mph 23.0 mph N/A   Clear
4:54 PM 68.0 °F - 34.0 °F 28% 29.96 in 10.0 mi WSW 12.7 mph - N/A   Clear
5:54 PM 63.0 °F - 36.0 °F 37% 29.96 in 10.0 mi SW 9.2 mph - N/A   Clear
6:54 PM 55.9 °F - 36.0 °F 47% 29.97 in 10.0 mi SSW 5.8 mph - N/A   Clear
7:54 PM 53.1 °F - 37.9 °F 57% 29.99 in 10.0 mi SW 5.8 mph - N/A   Clear
8:54 PM 54.0 °F - 37.0 °F 53% 30.00 in 10.0 mi SSW 5.8 mph - N/A   Clear
9:54 PM 53.1 °F - 37.9 °F 57% 30.00 in 10.0 mi SW 5.8 mph - N/A   Clear
10:54 PM 48.9 °F - 39.0 °F 69% 30.01 in 10.0 mi SW 8.1 mph - N/A   Clear
11:54 PM 48.0 °F - 37.9 °F 68% 30.01 in 10.0 mi SW 6.9 mph - N/A   Clear